Location: Middelsbur
(53.6609°N, 7.5020°E)
Time: 00:26:53
(UTC+00:00)

Cosmos 2218 Rocket - Pass Details

Date: 06 July 2020
Orbit: 955 x 1007 km, 82.9° (Epoch: 03 August)

Event Time Altitude Azimuth Distance (km) Brightness Sun altitude
Exits shadow 23:17:42 18° 190° (S) 2,245 5.3 -13.7°
Maximum altitude 23:22:40 87° 278° (W) 1,001 4.1 -13.7°
Drops below altitude 10° 23:29:00 10° 10° (N) 2,748 7.7 -13.8°
Sets 23:31:31 0° 11° (NNE) 3,692 8.8 -13.8°
